Regional Weather Roundup
Issued by NWS Newport/Morehead, NC

Current Version | Previous Version | Graphics & Text | Print | Product List | Glossary Off
Versions: 1 2 3 4 5 6 7 8 9 10 11 12 13 14 15 16 17 18 19 20 21 22 23 24 25 26 27 28 29 30 31 32 33 34 35 36 37 38 39 40 41 42 43 44 45 46 47 48 49 50

000
ASUS42 KMHX 011925
RWRMHX
WEATHER ROUNDUP FOR EASTERN NORTH CAROLINA
NATIONAL WEATHER SERVICE NEWPORT/MOREHEAD CITY NC
300 PM EDT TUE SEP 01 2015

NOTE: "FAIR" INDICATES FEW OR NO CLOUDS BELOW 12,000 FEET
WITH NO SIGNIFICANT WEATHER AND/OR OBSTRUCTIONS TO VISIBILITY

NCZ015>017-031-032-045>047-102-103-012000-
NORTH COAST

CITY           SKY/WX    TMP DP  RH WIND       PRES   REMARKS
EDENTON        SUNNY     82  69  66 W3        30.05F
ELIZABETH CITY MOSUNNY   86  72  62 N6        30.04F
KITTY HAWK     CLEAR     86  72  63 NE6       30.04S
MANTEO         CLOUDY    82  72  72 E8        30.05S

$$

NCZ045>047-081-094-103-104-012000-
CENTRAL COAST

CITY           SKY/WX    TMP DP  RH WIND       PRES   REMARKS
FRISCO         SUNNY     85  74  69 VRB6      30.05S
SWANQUARTER      N/A     86 N/A N/A W3        30.00S

$$

NCZ095-097-098-100-101-012000-
SOUTHERN COAST

CITY           SKY/WX    TMP DP  RH WIND       PRES   REMARKS
BEAUFORT       MOSUNNY   83  75  77 W7        30.04F
CEDAR ISLAND     N/A     82 N/A N/A NW8       30.09S
JACKSONVILLE   PTSUNNY   85  70  60 N7        30.05F
PINEY ISLAND   CLEAR    N/A N/A N/A N8        30.04F
WILMINGTON     PTSUNNY   85  71  63 N6        30.06F


$$

NCZ011>013-027>030-043-044-078>080-089-090>093-098-012000-
COASTAL PLAIN

CITY           SKY/WX    TMP DP  RH WIND       PRES   REMARKS
AHOSKIE        MOSUNNY   82  70  67 NE3       30.06F
CLINTON        MOSUNNY   87  72  60 CALM      30.06F
ELIZABETHTOWN  MOSUNNY   88  68  50 CALM      30.06F
GOLDSBORO      MOSUNNY   89  71  56 N7        30.05F
GREENVILLE     MOSUNNY   86  70  58 N6        30.07F
HAVELOCK       MOSUNNY   87  71  58 N7        30.05F
KENANSVILLE      N/A     85  68  57 CALM      30.07F
KINSTON        MOSUNNY   84  70  61 N5        30.07F
NEW BERN       SUNNY     85  70  60 NW6       30.06F
RICHLANDS      PTSUNNY   82  68  61 CALM      30.06F
ROCKY MOUNT    SUNNY     89  67  47 NE6       30.06F
WASHINGTON     SUNNY     82  71  68 CALM      30.06F
WHITEVILLE     PTSUNNY   87  69  55 NW3       30.06F

$$

AMZ130-135-150-152-154-156-158-170-250-252-270-ANZ085-086-088-633-658-670-012000-
MARINE OBSERVATIONS

STATION/POSITION TIME  TEMP    WIND        PRES    WAVE   SWELL
                       AIR SEA DIR/SP/G            HT/PER HT/PER
                 (UTC) (F)     (DEG/KT/KT) (MB)    (FT/S) (FT/S)
CHESAPEAKE LIGHT 1900   77      50/  3/  4 1018.4
64 E VA BEACH    1850   78 79   10/  6/  8 1017.2    2/ 8   2/ 8
DUCK             1900   78 78   40/  6/  7 1016.8
2 E DUCK         1911      81                N/A     2/11
OREGON INLET     1900   80 79   20/  8/ 10 1017.4
13E OREGON INLT  1900      80                N/A     2/10   2/11
HATTERAS CG      1900   80 80  330/  5/  7 1017.3
DIAMOND BUOY     1850   80 84  350/  8/  8 1017.5    3/ 6   2/ 6
CAPE LOOKOUT     1900   82     260/  6/  8 1017.2
BEAUFORT LAB     1900   84 79  250/  4/  7 1016.8
30 SE NEW RVR IN 1808   79 82  350/  4/  6 1018.6
30 SE NEW RVR IN 1825      83                N/A     3/ 8
27 SE WRIGHTSVLE 1900   77 83  360/  2/  2   N/A
5 SE WRIGHTSVLE  1808   80 83  120/  2/  6 1018.4
225 S CAPE HAT   1850   85 85  260/  4/  4 1018.6    3/ 6   3/ 6
41 SE CHARLESTON 1850   81 83   50/  4/  6 1018.8    3/ 7   2/ 7

$$



USA.gov is the U.S. government's official web portal to all federal, state and local government web resources and services.